GER24M LIMC-EKCH

Flight info

Callsign GER24M
Flight time N/A
Altitude 38000
Route SRN6SXOSKOR6S/35R OSKOR DCT NESTI DCT TAGIP DCT BRENO DCT KONIN DCT EXITI DCT EMBOX/N0442F390 DCT NOBRI/N0437F380 M726 ROSOK Q296 MONAK
Aircraft A20N/M-SDE2E3FGHIRWXY/LB1

Departure

Time N/A
Airport Milan Malpensa International Airport (LIMC)

Arrival

Time 2026-05-06 18:00
Airport Copenhagen Kastrup Airport (EKCH)
Time Latitude Longitude Altitude Speed Heading
2026-05-06 17:19 48.87295 11.39106 37757 ft 478 kts 358°
2026-05-06 17:20 48.90613 11.39182 37759 ft 477 kts 358°
2026-05-06 17:20 48.97205 11.39335 37775 ft 477 kts 358°
2026-05-06 17:21 49.07640 11.39577 37784 ft 477 kts 358°
2026-05-06 17:21 49.25946 11.40005 37753 ft 478 kts 358°
2026-05-06 17:22 49.45077 11.40454 37757 ft 481 kts 358°
2026-05-06 17:22 49.71723 11.40391 37767 ft 482 kts 356°
2026-05-06 17:23 49.82665 11.40141 37772 ft 482 kts 356°
2026-05-06 17:23 49.88234 11.40019 37772 ft 482 kts 356°
2026-05-06 17:24 49.96058 11.39846 37783 ft 481 kts 356°
2026-05-06 17:24 50.02702 11.39699 37731 ft 480 kts 356°
2026-05-06 17:25 50.25506 11.39187 37746 ft 479 kts 356°
2026-05-06 17:25 50.52132 11.38583 37754 ft 477 kts 356°
2026-05-06 17:26 50.78592 11.37978 37752 ft 474 kts 356°
2026-05-06 17:26 51.04840 11.37368 37773 ft 476 kts 356°
2026-05-06 17:27 51.31355 11.36746 37791 ft 477 kts 356°
2026-05-06 17:27 51.52559 11.36244 37810 ft 477 kts 356°
2026-05-06 17:28 51.58073 11.36113 37771 ft 476 kts 356°
2026-05-06 17:28 51.65806 11.36649 37779 ft 480 kts 12°
2026-05-06 17:29 51.72227 11.39501 37789 ft 482 kts 14°
2026-05-06 17:29 51.78665 11.42485 37796 ft 481 kts 14°
2026-05-06 17:30 51.85212 11.44354 37802 ft 478 kts
2026-05-06 17:30 52.09934 11.46669 37804 ft 478 kts
2026-05-06 17:31 52.36444 11.49473 37774 ft 477 kts
2026-05-06 17:31 52.62731 11.52288 37796 ft 476 kts
2026-05-06 17:32 52.89149 11.55152 37833 ft 475 kts
2026-05-06 17:32 53.15497 11.58039 37849 ft 474 kts
2026-05-06 17:33 53.23146 11.58988 37845 ft 475 kts
2026-05-06 17:33 53.29625 11.61378 37856 ft 479 kts 15°
2026-05-06 17:34 53.37050 11.65053 37854 ft 479 kts 14°
2026-05-06 17:34 53.43444 11.68202 37858 ft 479 kts 14°
2026-05-06 17:35 53.49832 11.71388 37861 ft 479 kts 14°
2026-05-06 17:35 53.56223 11.74593 37841 ft 479 kts 14°
2026-05-06 17:36 53.62575 11.77789 37043 ft 480 kts 14°
2026-05-06 17:36 53.65770 11.79400 36430 ft 479 kts 14°
2026-05-06 17:36 53.68959 11.81011 35827 ft 477 kts 15°
2026-05-06 17:36 53.72131 11.82615 35243 ft 475 kts 15°
2026-05-06 17:37 53.75287 11.84214 34674 ft 473 kts 15°
2026-05-06 17:37 53.77373 11.85272 34300 ft 472 kts 15°
2026-05-06 17:37 53.81569 11.87403 33498 ft 472 kts 15°
2026-05-06 17:37 53.84676 11.88983 32850 ft 472 kts 16°
2026-05-06 17:38 53.87820 11.90584 32211 ft 471 kts 16°
2026-05-06 17:38 53.90955 11.92182 31583 ft 469 kts 16°
2026-05-06 17:38 53.94077 11.93776 30970 ft 468 kts 17°
2026-05-06 17:38 53.97188 11.95367 30368 ft 466 kts 17°
2026-05-06 17:39 54.00285 11.96953 29753 ft 463 kts 17°
2026-05-06 17:39 54.03351 11.98528 29067 ft 459 kts 17°
2026-05-06 17:39 54.06392 12.00095 28400 ft 455 kts 17°
2026-05-06 17:39 54.08395 12.01128 27964 ft 452 kts 17°
2026-05-06 17:40 54.11392 12.02676 27323 ft 448 kts 17°
2026-05-06 17:40 54.15320 12.04709 26496 ft 443 kts 16°
2026-05-06 17:40 54.17305 12.05739 26085 ft 441 kts 16°
2026-05-06 17:40 54.21169 12.07747 25302 ft 436 kts 15°
2026-05-06 17:41 54.24063 12.09253 24710 ft 432 kts 15°
2026-05-06 17:41 54.26929 12.10747 24138 ft 429 kts 15°
2026-05-06 17:41 54.28814 12.11722 23766 ft 426 kts 13°
2026-05-06 17:41 54.32680 12.12781 22933 ft 418 kts
2026-05-06 17:42 54.34589 12.13174 22500 ft 416 kts
2026-05-06 17:42 54.38374 12.13952 21649 ft 412 kts
2026-05-06 17:42 54.41212 12.14537 21045 ft 409 kts
2026-05-06 17:42 54.44024 12.15118 20429 ft 406 kts
2026-05-06 17:43 54.46820 12.15697 19830 ft 403 kts
2026-05-06 17:43 54.49598 12.16274 19244 ft 401 kts
2026-05-06 17:43 54.52355 12.16847 18669 ft 398 kts
2026-05-06 17:43 54.55094 12.17417 18089 ft 395 kts
2026-05-06 17:44 54.57814 12.17984 17437 ft 393 kts
2026-05-06 17:44 54.60480 12.18541 16822 ft 390 kts
2026-05-06 17:44 54.63168 12.19102 16205 ft 387 kts
2026-05-06 17:44 54.65827 12.19658 15593 ft 384 kts
2026-05-06 17:45 54.68468 12.20213 15016 ft 380 kts
2026-05-06 17:45 54.70200 12.20575 14691 ft 376 kts
2026-05-06 17:45 54.73597 12.21287 14036 ft 358 kts
2026-05-06 17:45 54.76027 12.21797 13525 ft 346 kts
2026-05-06 17:46 54.78379 12.22292 13024 ft 334 kts
2026-05-06 17:46 54.80650 12.22768 12560 ft 323 kts
2026-05-06 17:46 54.82847 12.23231 12122 ft 312 kts
2026-05-06 17:46 54.84964 12.23678 11702 ft 302 kts
2026-05-06 17:47 54.86991 12.24105 11390 ft 293 kts
2026-05-06 17:47 54.89013 12.24530 11018 ft 295 kts
2026-05-06 17:47 54.91060 12.24961 10571 ft 295 kts
2026-05-06 17:47 54.93074 12.25386 10125 ft 288 kts
2026-05-06 17:48 54.95057 12.25806 9715 ft 288 kts
2026-05-06 17:48 54.97049 12.26226 9280 ft 288 kts
2026-05-06 17:48 54.98360 12.26503 9138 ft 283 kts
2026-05-06 17:48 55.00932 12.27050 8980 ft 280 kts
2026-05-06 17:49 55.02845 12.27458 8951 ft 280 kts
2026-05-06 17:49 55.04148 12.27737 8951 ft 279 kts
2026-05-06 17:49 55.06704 12.28283 8952 ft 280 kts
2026-05-06 17:49 55.08013 12.28563 8951 ft 280 kts
2026-05-06 17:50 55.10567 12.29110 8949 ft 278 kts
2026-05-06 17:50 55.11815 12.29377 8953 ft 268 kts
2026-05-06 17:50 55.13614 12.29763 8954 ft 252 kts
2026-05-06 17:50 55.15870 12.30248 8875 ft 243 kts
2026-05-06 17:51 55.17572 12.30613 8535 ft 249 kts
2026-05-06 17:51 55.18717 12.30858 8240 ft 251 kts
2026-05-06 17:51 55.20990 12.31346 8012 ft 240 kts
2026-05-06 17:51 55.22069 12.31579 7963 ft 231 kts
2026-05-06 17:52 55.24196 12.32039 7967 ft 237 kts
2026-05-06 17:52 55.25287 12.32277 7962 ft 240 kts
2026-05-06 17:52 55.27471 12.32749 7972 ft 238 kts
2026-05-06 17:52 55.28580 12.32985 7965 ft 237 kts
2026-05-06 17:53 55.30762 12.33453 7747 ft 239 kts
2026-05-06 17:53 55.31884 12.33697 7448 ft 241 kts
2026-05-06 17:53 55.34093 12.34169 6986 ft 239 kts
2026-05-06 17:53 55.35178 12.34406 6769 ft 237 kts
2026-05-06 17:54 55.37358 12.34883 6240 ft 235 kts
2026-05-06 17:54 55.38965 12.35233 5803 ft 230 kts 10°
2026-05-06 17:54 55.40008 12.35459 5526 ft 227 kts 10°
2026-05-06 17:54 55.41558 12.35797 5108 ft 222 kts 10°
2026-05-06 17:55 55.43521 12.36536 4552 ft 214 kts 28°
2026-05-06 17:55 55.44741 12.37959 4097 ft 210 kts 43°
2026-05-06 17:55 55.45798 12.39669 3742 ft 200 kts 45°
2026-05-06 17:55 55.46819 12.41243 3415 ft 190 kts 44°
2026-05-06 17:56 55.47785 12.42728 3131 ft 180 kts 45°
2026-05-06 17:56 55.48400 12.43676 2956 ft 178 kts 45°
2026-05-06 17:56 55.49667 12.45625 2619 ft 180 kts 45°
2026-05-06 17:56 55.50290 12.46583 2458 ft 179 kts 45°
2026-05-06 17:57 55.51227 12.48025 2201 ft 177 kts 45°
2026-05-06 17:57 55.52390 12.49812 1885 ft 157 kts 45°
2026-05-06 17:57 55.53185 12.51035 1686 ft 141 kts 46°
2026-05-06 17:57 55.53891 12.52130 1477 ft 138 kts 46°
2026-05-06 17:58 55.54607 12.53247 1268 ft 137 kts 46°
2026-05-06 17:58 55.55097 12.53988 1159 ft 137 kts 45°
2026-05-06 17:58 55.56056 12.55462 940 ft 139 kts 46°
2026-05-06 17:58 55.56534 12.56221 767 ft 140 kts 47°
2026-05-06 17:59 55.57524 12.57747 436 ft 143 kts 45°
2026-05-06 17:59 55.58274 12.58898 252 ft 141 kts 45°
2026-05-06 17:59 55.58767 12.59648 151 ft 142 kts 45°
2026-05-06 17:59 55.59755 12.61163 22 ft 134 kts 45°
2026-05-06 18:00 55.60307 12.62054 20 ft 81 kts 39°
2026-05-06 18:00 55.60620 12.62519 25 ft 46 kts 40°
2026-05-06 18:00 55.60774 12.62731 25 ft 39 kts 27°
2026-05-06 18:00 55.61011 12.62880 22 ft 16 kts 12°
2026-05-06 18:01 55.61088 12.62911 23 ft 9 kts 13°
2026-05-06 18:01 55.61124 12.62930 26 ft 7 kts 20°
2026-05-06 18:01 55.61178 12.62997 28 ft 9 kts 41°
2026-05-06 18:01 55.61213 12.63051 27 ft 11 kts 41°
2026-05-06 18:02 55.61276 12.63148 27 ft 7 kts 41°
2026-05-06 18:02 55.61322 12.63221 27 ft 11 kts 41°
2026-05-06 18:02 55.61388 12.63323 26 ft 10 kts 41°
2026-05-06 18:02 55.61444 12.63412 28 ft 13 kts 41°
2026-05-06 18:03 55.61516 12.63524 24 ft 12 kts 41°
2026-05-06 18:03 55.61570 12.63608 27 ft 7 kts 41°
2026-05-06 18:03 55.61597 12.63650 24 ft 9 kts 41°
2026-05-06 18:03 55.61642 12.63720 26 ft 10 kts 41°
2026-05-06 18:04 55.61702 12.63815 25 ft 12 kts 42°
2026-05-06 18:04 55.61769 12.63920 27 ft 14 kts 40°
2026-05-06 18:04 55.61843 12.64028 27 ft 15 kts 39°
2026-05-06 18:04 55.61940 12.64136 23 ft 19 kts 28°
2026-05-06 18:05 55.62049 12.64220 19 ft 9 kts 22°
2026-05-06 18:05 55.62114 12.64288 18 ft 13 kts 25°
2026-05-06 18:05 55.62213 12.64363 16 ft 17 kts 15°
2026-05-06 18:05 55.62297 12.64233 16 ft 19 kts 304°
2026-05-06 18:06 55.62378 12.64023 19 ft 21 kts 302°
2026-05-06 18:06 55.62459 12.63792 20 ft 23 kts 302°
2026-05-06 18:06 55.62542 12.63572 21 ft 15 kts 307°
2026-05-06 18:06 55.62641 12.63496 20 ft 17 kts 346°
2026-05-06 18:07 55.62713 12.63359 18 ft 11 kts 301°
2026-05-06 18:07 55.62754 12.63247 19 ft 8 kts 303°
2026-05-06 18:07 55.62805 12.63230 18 ft 9 kts
2026-05-06 18:07 55.62830 12.63235 18 ft 0 kts